Location: Los Gatos B&B
(42.6926°N, 77.0646°W)
Time: 17:42:33
(UTC-04:00)

Amateur Radio Satellites - All Passes

Search period start: 22 October 2014 17:12
Search period end: 23 October 2014 17:12
Location: Los Gatos B&B, 42.6926°N, 77.0646°W

Satellite Date Start Highest point End Downlink Frequencies (MHz)
Time Altitude Azimuth
AO-7 22 Oct 17:24:59 17:32:42 43° 261° (W) 17:40:29 29.400 - 29.500 MHz
ISS 22 Oct 18:04:50 18:07:17 19° 8° (N) 18:09:45 145.800 FM
KITSAT 1 22 Oct 18:04:50 18:08:05 13° 2° (N) 18:11:21 435.175 FM
JAS-2 22 Oct 18:07:05 18:12:52 73° 258° (WSW) 18:19:30 435.800 - 435.900 CW/SSB, 435.910 FM
Hamsat 22 Oct 18:08:14 18:12:28 88° 77° (ENE) 18:16:41 145.90 MHz
UOSAT-12 22 Oct 18:18:47 18:19:42 11° 331° (NNW) 18:20:36 437.025 FM, 437.400 FM
Saudisat 1A 22 Oct 18:21:49 18:25:33 27° 246° (WSW) 18:29:15 436.775 MHz
OPAL 22 Oct 18:23:39 18:28:37 66° 104° (ESE) 18:33:31 ?
AO-40 22 Oct 18:55:44 00:50:23 42° 183° (S) 06:01:31 Beacon 2401.320
HO-68 22 Oct 19:05:29 19:08:38 14° 49° (NE) 19:11:48 435.675 MHz FM
SO-67 22 Oct 19:32:22 19:35:47 74° 259° (W) 19:39:14 435.3500 MHz FM
ISS 22 Oct 19:41:20 19:44:35 46° 27° (NNE) 19:47:49 145.800 FM
KITSAT 1 22 Oct 20:01:04 20:07:12 23° 32° (NNE) 20:13:18 435.175 FM
OPAL 22 Oct 20:03:52 20:06:58 17° 302° (WNW) 20:10:04 ?
STRAND 1 22 Oct 20:03:56 20:09:07 77° 103° (ESE) 20:14:15 ?
HO-68 22 Oct 20:47:56 20:54:57 63° 69° (ENE) 21:02:02 435.675 MHz FM
RS-15 22 Oct 20:48:08 20:51:12 12° 94° (E) 20:54:14 29.354 - 29.394 USB, Beacon 29.352 USB
UKube-1 22 Oct 21:07:23 21:11:01 26° 67° (ENE) 21:14:40 145.840 MHz, 145.915 MHz
ISS 22 Oct 21:18:21 21:21:07 24° 225° (SW) 21:23:53 145.800 FM
FUNcube-1 22 Oct 21:42:46 21:46:28 25° 67° (ENE) 21:50:08 145.950 - 145.970 MHz USB
STRAND 1 22 Oct 21:44:48 21:47:39 15° 301° (WNW) 21:50:30 ?
SO-50 22 Oct 21:46:23 21:50:43 32° 46° (NE) 21:55:06 436.795 FM
Oscar 11 22 Oct 21:50:20 21:54:37 65° 74° (ENE) 21:58:55 145.825 FM, Beacon 2401.500 USB
KITSAT 1 22 Oct 21:56:00 22:04:07 73° 56° (NE) 22:12:10 435.175 FM
ZACube-1 22 Oct 22:32:36 22:37:12 79° 76° (ENE) 22:41:46 437.345 MHz
HO-68 22 Oct 22:37:25 22:43:07 26° 267° (W) 22:48:54 435.675 MHz FM
UKube-1 22 Oct 22:43:18 22:47:06 29° 263° (W) 22:50:56 145.840 MHz, 145.915 MHz
RS-15 22 Oct 22:50:20 23:01:04 62° 115° (ESE) 23:11:44 29.354 - 29.394 USB, Beacon 29.352 USB
FUNcube-1 22 Oct 23:18:28 23:22:40 35° 263° (W) 23:26:51 145.950 - 145.970 MHz USB
UOSAT-12 22 Oct 23:22:57 23:27:02 28° 44° (NE) 23:31:03 437.025 FM, 437.400 FM
SO-50 22 Oct 23:26:52 23:31:20 37° 244° (WSW) 23:35:49 436.795 FM
Oscar 11 22 Oct 23:29:40 23:31:13 12° 271° (W) 23:32:46 145.825 FM, Beacon 2401.500 USB
KITSAT 1 22 Oct 23:52:27 23:58:46 26° 255° (WSW) 00:05:03 435.175 FM
ZACube-1 23 Oct 00:13:14 00:14:06 10° 272° (W) 00:14:58 437.345 MHz
MaSat-1 23 Oct 00:31:47 00:35:56 57° 114° (ESE) 00:39:42 437.345 MHz
UOSAT-12 23 Oct 01:02:52 01:07:19 42° 243° (WSW) 01:11:41 437.025 FM, 437.400 FM
RS-15 23 Oct 01:03:34 01:13:53 45° 320° (NW) 01:24:18 29.354 - 29.394 USB, Beacon 29.352 USB
JAS-1B 23 Oct 01:16:32 01:19:48 14° 90° (E) 01:23:16 435.800 - 435.900 CW/SSB
Oscar 16 23 Oct 01:26:22 01:28:53 14° 89° (E) 01:31:23 437.025 USB, Beacon 2401.1428
MaSat-1 23 Oct 02:09:32 02:11:52 15° 308° (NW) 02:14:04 437.345 MHz
Oscar 19 23 Oct 02:18:24 02:23:15 42° 98° (E) 02:28:04 437.125 CW, 437.150 USB
AO-27 23 Oct 02:31:13 02:35:22 23° 94° (E) 02:39:29 436.795 MHz FM
Oscar 16 23 Oct 03:03:39 03:08:47 73° 286° (WNW) 03:13:52 437.025 USB, Beacon 2401.1428
JAS-1B 23 Oct 03:04:28 03:11:00 83° 105° (ESE) 03:18:50 435.800 - 435.900 CW/SSB
AO-Echo 23 Oct 03:15:37 03:20:57 79° 103° (ESE) 03:26:16 ?
Uribyol 2 23 Oct 03:19:19 03:24:33 68° 102° (ESE) 03:29:42 436.500 FM
RS-15 23 Oct 03:21:53 03:30:06 23° 353° (N) 03:38:27 29.354 - 29.394 USB, Beacon 29.352 USB
ITAMSAT 1 23 Oct 03:24:47 03:30:02 71° 103° (ESE) 03:35:13 435.822 SSB
PCSat 23 Oct 03:26:17 03:29:07 15° 103° (ESE) 03:31:57 145.825 MHz
Gurwin Techsat 1B 23 Oct 03:32:18 03:37:24 45° 99° (E) 03:42:27 435.225 FM
AO-7 23 Oct 03:36:37 03:38:41 11° 85° (E) 03:40:46 29.400 - 29.500 MHz
TMSAT-1 23 Oct 03:44:56 03:50:00 43° 98° (E) 03:55:02 436.925 FM
Oscar 19 23 Oct 03:58:14 04:02:22 25° 295° (WNW) 04:06:29 437.125 CW, 437.150 USB
OPAL 23 Oct 04:02:38 04:06:03 18° 59° (ENE) 04:09:27 ?
AO-27 23 Oct 04:10:05 04:15:04 45° 291° (WNW) 04:20:01 436.795 MHz FM
Sapphire 23 Oct 04:43:42 04:49:01 63° 116° (ESE) 04:54:23 437.095 MHz 1200 baud AX-25 AFSK
Oscar 16 23 Oct 04:46:42 04:47:13 10° 304° (NW) 04:47:43 437.025 USB, Beacon 2401.1428
AO-Echo 23 Oct 04:56:01 04:59:03 16° 300° (WNW) 05:02:05 ?
JAS-1B 23 Oct 04:56:48 05:01:07 19° 300° (WNW) 05:05:51 435.800 - 435.900 CW/SSB
Uosat F 23 Oct 04:59:09 05:03:38 31° 96° (E) 05:08:05 435.120 FM
Uribyol 2 23 Oct 05:00:09 05:03:27 17° 300° (WNW) 05:06:44 436.500 FM
ITAMSAT 1 23 Oct 05:05:44 05:08:55 17° 300° (WNW) 05:12:06 435.822 SSB
PCSat 23 Oct 05:06:24 05:11:48 80° 301° (WNW) 05:17:16 145.825 MHz
Gurwin Techsat 1B 23 Oct 05:12:49 05:17:05 25° 296° (WNW) 05:21:21 435.225 FM
JAS-2 23 Oct 05:15:48 05:21:16 20° 88° (E) 05:26:45 435.800 - 435.900 CW/SSB, 435.910 FM
AO-7 23 Oct 05:24:45 05:33:02 65° 104° (ESE) 05:41:16 29.400 - 29.500 MHz
TMSAT-1 23 Oct 05:25:22 05:29:40 26° 296° (WNW) 05:33:58 436.925 FM
RS-15 23 Oct 05:37:45 05:47:16 31° 28° (NNE) 05:57:03 29.354 - 29.394 USB, Beacon 29.352 USB
OPAL 23 Oct 05:39:20 05:44:27 64° 256° (WSW) 05:49:32 ?
STRAND 1 23 Oct 05:44:02 05:47:09 16° 60° (ENE) 05:50:16 ?
Hamsat 23 Oct 05:54:29 05:56:49 15° 91° (E) 05:59:09 145.90 MHz
Sapphire 23 Oct 06:28:37 06:32:53 23° 316° (NW) 06:37:12 437.095 MHz 1200 baud AX-25 AFSK
Uosat F 23 Oct 06:37:55 06:42:22 32° 293° (WNW) 06:46:49 435.120 FM
PCSat 23 Oct 06:52:49 06:56:07 16° 321° (NW) 06:59:27 145.825 MHz
JAS-2 23 Oct 06:59:15 07:07:01 86° 285° (WNW) 07:14:52 435.800 - 435.900 CW/SSB, 435.910 FM
AO-7 23 Oct 07:18:15 07:25:17 32° 304° (NW) 07:32:19 29.400 - 29.500 MHz
STRAND 1 23 Oct 07:20:39 07:25:45 70° 258° (WSW) 07:30:54 ?
Hamsat 23 Oct 07:29:00 07:33:03 48° 287° (WNW) 07:37:05 145.90 MHz
RS-15 23 Oct 07:50:22 08:01:35 81° 55° (NE) 08:13:16 29.354 - 29.394 USB, Beacon 29.352 USB
SO-67 23 Oct 08:27:42 08:31:08 69° 284° (WNW) 08:34:34 435.3500 MHz FM
Saudisat 1A 23 Oct 08:27:59 08:32:19 64° 121° (ESE) 08:36:41 436.775 MHz
JAS-2 23 Oct 08:45:46 08:51:02 21° 304° (WNW) 08:56:24 435.800 - 435.900 CW/SSB, 435.910 FM
Oscar 11 23 Oct 09:39:42 09:40:51 11° 89° (E) 09:42:00 145.825 FM, Beacon 2401.500 USB
HO-68 23 Oct 10:02:13 10:09:21 61° 102° (ESE) 10:16:26 435.675 MHz FM
RS-15 23 Oct 10:03:54 10:12:48 29° 256° (WSW) 10:22:01 29.354 - 29.394 USB, Beacon 29.352 USB
Saudisat 1A 23 Oct 10:09:08 10:12:18 19° 320° (NW) 10:15:28 436.775 MHz
MaSat-1 23 Oct 10:17:48 10:20:24 49° 247° (WSW) 10:22:46 437.345 MHz
ZACube-1 23 Oct 10:22:56 10:25:09 14° 90° (E) 10:27:20 437.345 MHz
UKube-1 23 Oct 10:30:07 10:34:17 42° 99° (E) 10:38:25 145.840 MHz, 145.915 MHz
FUNcube-1 23 Oct 11:06:41 11:10:45 41° 98° (E) 11:14:42 145.950 - 145.970 MHz USB
Oscar 11 23 Oct 11:13:12 11:17:30 68° 285° (WNW) 11:21:45 145.825 FM, Beacon 2401.500 USB
Sapphire 23 Oct 11:49:15 11:51:42 13° 35° (NE) 11:54:09 437.095 MHz 1200 baud AX-25 AFSK
HO-68 23 Oct 11:50:39 11:56:35 29° 301° (WNW) 12:02:30 435.675 MHz FM
ZACube-1 23 Oct 11:57:44 12:01:54 51° 287° (WNW) 12:05:58 437.345 MHz
UKube-1 23 Oct 12:07:04 12:10:10 19° 296° (WNW) 12:13:16 145.840 MHz, 145.915 MHz
JAS-1B 23 Oct 12:07:18 12:08:11 10° 53° (NE) 12:09:05 435.800 - 435.900 CW/SSB
PCSat 23 Oct 12:11:14 12:14:59 19° 41° (NE) 12:18:43 145.825 MHz
KITSAT 1 23 Oct 12:25:04 12:32:36 45° 111° (ESE) 12:40:10 435.175 FM
Oscar 16 23 Oct 12:43:32 12:47:32 23° 64° (ENE) 12:51:33 437.025 USB, Beacon 2401.1428
FUNcube-1 23 Oct 12:43:53 12:46:49 18° 295° (WNW) 12:49:42 145.950 - 145.970 MHz USB
AO-Echo 23 Oct 12:53:39 12:56:11 14° 59° (ENE) 12:58:45 ?
Uribyol 2 23 Oct 13:01:21 13:04:20 16° 59° (ENE) 13:07:20 436.500 FM
ITAMSAT 1 23 Oct 13:06:46 13:09:54 16° 60° (ENE) 13:13:03 435.822 SSB
Gurwin Techsat 1B 23 Oct 13:18:54 13:20:20 11° 56° (NE) 13:21:46 435.225 FM
Sapphire 23 Oct 13:30:56 13:36:19 59° 56° (NE) 13:41:40 437.095 MHz 1200 baud AX-25 AFSK
TMSAT-1 23 Oct 13:31:36 13:32:40 11° 56° (NE) 13:33:44 436.925 FM
Oscar 19 23 Oct 13:35:55 13:41:01 66° 73° (ENE) 13:46:07 437.125 CW, 437.150 USB
SO-50 23 Oct 13:42:00 13:46:25 61° 120° (ESE) 13:50:59 436.795 FM
AO-27 23 Oct 13:49:54 13:54:42 39° 68° (ENE) 13:59:31 436.795 MHz FM
JAS-1B 23 Oct 13:51:55 13:57:55 74° 73° (ENE) 14:03:35 435.800 - 435.900 CW/SSB
PCSat 23 Oct 13:53:40 13:59:07 86° 241° (WSW) 14:04:32 145.825 MHz
ISS 23 Oct 14:00:10 14:03:28 71° 144° (SE) 14:06:48 145.800 FM
Oscar 10/S400 23 Oct 14:13:50 14:31:02 37° 153° (SSE) 14:53:47 145.825 - 145.975 CW/USB, Beacon 145.810 USB
KITSAT 1 23 Oct 14:20:16 14:27:59 47° 312° (NW) 14:35:45 435.175 FM
Oscar 16 23 Oct 14:21:38 14:26:35 47° 261° (W) 14:31:34 437.025 USB, Beacon 2401.1428
AO-Echo 23 Oct 14:29:23 14:34:15 77° 257° (WSW) 14:39:19 ?
AO-7 23 Oct 14:34:59 14:40:53 22° 50° (NE) 14:46:46 29.400 - 29.500 MHz
Uribyol 2 23 Oct 14:37:57 14:43:10 76° 257° (WSW) 14:48:25 436.500 FM
ITAMSAT 1 23 Oct 14:43:36 14:48:47 72° 257° (WSW) 14:54:02 435.822 SSB
Gurwin Techsat 1B 23 Oct 14:54:05 14:59:22 76° 74° (ENE) 15:04:42 435.225 FM
TMSAT-1 23 Oct 15:06:22 15:11:38 73° 74° (ENE) 15:16:57 436.925 FM
UOSAT-12 23 Oct 15:14:15 15:18:42 49° 118° (ESE) 15:23:15 437.025 FM, 437.400 FM
Sapphire 23 Oct 15:15:21 15:19:16 20° 254° (WSW) 15:23:09 437.095 MHz 1200 baud AX-25 AFSK
Saudisat 1A 23 Oct 15:16:13 15:17:53 12° 33° (NNE) 15:19:32 436.775 MHz
Oscar 19 23 Oct 15:17:49 15:20:49 15° 270° (W) 15:23:49 437.125 CW, 437.150 USB
SO-50 23 Oct 15:23:56 15:27:23 21° 320° (NW) 15:30:54 436.795 FM
AO-27 23 Oct 15:29:53 15:34:17 27° 265° (W) 15:38:43 436.795 MHz FM
ISS 23 Oct 15:37:35 15:40:26 25° 342° (NNW) 15:43:17 145.800 FM
PCSat 23 Oct 15:39:57 15:41:40 11° 258° (WSW) 15:43:22 145.825 MHz
JAS-1B 23 Oct 15:46:16 15:49:14 14° 270° (W) 15:52:08 435.800 - 435.900 CW/SSB
Uosat F 23 Oct 16:13:01 16:17:48 47° 70° (ENE) 16:22:38 435.120 FM
KITSAT 1 23 Oct 16:20:48 16:25:44 17° 338° (NNW) 16:30:41 435.175 FM
AO-7 23 Oct 16:24:18 16:32:35 88° 71° (ENE) 16:40:56 29.400 - 29.500 MHz
Gurwin Techsat 1B 23 Oct 16:37:14 16:39:55 14° 271° (W) 16:42:37 435.225 FM
TMSAT-1 23 Oct 16:49:15 16:52:06 15° 271° (W) 16:54:58 436.925 FM
Hamsat 23 Oct 16:49:34 16:51:22 13° 63° (ENE) 16:53:10 145.90 MHz
Saudisat 1A 23 Oct 16:53:56 16:58:20 63° 54° (NE) 17:02:43 436.775 MHz
UOSAT-12 23 Oct 16:55:13 16:59:06 25° 317° (NW) 17:03:01 437.025 FM, 437.400 FM
